CHUANG XIN 1-02(CX-1-02)

Satellite information

Favourite Embed

Satellite Type and Status

PAYLOADIN ORBIT

Key statistics

Satellite CHUANG XIN 1-02(CX-1-02) at a glance.

Uptime

6202

Days in orbit

Revolutions

≈ 14.3

Per day

Orbit

SSO

Sun Synchronous Orbit

Inclination

98.6

Latest

Satellite identification and parameters

Extended collection of information and parameters for CHUANG XIN 1-02(CX-1-02).

Object identification

Identified? True

Debris? False

Object name: CHUANG XIN 1-02(CX-1-02)

International designator: 2008-056B

Object number (NORAD): 33434

Object ID (CCSDS): 33434

Country: PEOPLES REPUBLIC OF CHINA (PRC)

Current information (Y/N): Y

RCS size: MEDIUM

Orbital parameters

Period: 100.693 minutes

Inclination: 98.638 deg

SMA: 7169.584 km

Apoapsis: 802.492 km

Periapsis: 780.406 km

RAAN: 324.9672 deg

Eccentricy: 0.00154026

Argument of periapsis: 99.8842 deg

Mean anomaly: 260.408 deg

Mean motion: 14.30084882 rev/day

Mean motion (dot): 0.00000128 rev/day2

B* drag term: 0.000066551527 1/REarth

Two-line elements (TLE)

Creation date: Oct. 28, 2025, 7:11 p.m.

Reference frame: TEME

Reference center: EARTH

Epoch: Oct. 28, 2025, 3:31 p.m. UTC

TLE line 0: 0 CHUANG XIN 1-02(CX-1-02)

TLE line 1: 1 33434U 08056B 25301.64702306 .00000128 00000-0 66552-4 0 9994

TLE line 2: 2 33434 98.6380 324.9672 0015403 99.8842 260.4080 14.30084882885525

Live tracking on map

Real-time ground track for satellite CHUANG XIN 1-02(CX-1-02).

In-orbit conjunctions

There are no conjunctions computed for CHUANG XIN 1-02(CX-1-02), at the moment. Check back to stay up to date, as we update our databases every day.

Go to all conjunctions

Associated space launch

Chinese experimental Earth observation satellite

CHUANG XIN 1-02(CX-1-02) was lifted into orbit during the mission ‘Long March 2D | Shiyan Weixing 3’, on board a Long March 2D space rocket.

The launch took place on Nov. 5, 2008, 12:15 a.m. from Launch Area 4 (SLS-2 / 603).

For more information about the launch, click the button.

Launch to space Long March 2D | Shiyan Weixing 3
Long March 2D | Shiyan Weixing 3

Agency: N/A

Status: Launch Successful

Launch date: Nov. 5, 2008, 12:15 a.m. UTC

Rocket: Long March 2D

Launch pad: Launch Area 4 (SLS-2 / 603)

Location: Jiuquan Satellite Launch Center, People's Republic of China

...

Latest news about this satellite

There are no fresh news available about this satellite. Check back as we update our databases every day.


Newsletter sign-up

Weekly statistics, charts and insights to help you stay on top of the space industry.